,,PA_Meas_PMT16A,,PR_Meas_QMR101_102,,RH_Meas_QMH101,,SR_Meas_QMS101,,TA_Meas_QMH101,,GenWind,,GenWind,
time,status,PA,status,PR,status,RH,status,SR,status,TA,status,DirAvg,status,SpdAvg,
2011-11-20, 00:00:05,VALID,917.353,VALID,0,VALID,94.1949,VALID,0,VALID,20.6194,VALID,22,VALID,0,
2011-11-20, 00:01:05,VALID,917.338,VALID,0,VALID,94.3855,VALID,0,VALID,20.5789,VALID,22,VALID,0,
2011-11-20, 00:02:05,VALID,917.328,VALID,0,VALID,94.4236,VALID,0,VALID,20.5804,VALID,22,VALID,0,
2011-11-20, 00:03:05,VALID,917.343,VALID,0,VALID,94.538,VALID,0,VALID,20.5204,VALID,22,VALID,0,
2011-11-20, 00:04:05,VALID,917.382,VALID,0,VALID,94.6371,VALID,0,VALID,20.4813,VALID,22,VALID,0,
2011-11-20, 00:05:05,VALID,917.366,VALID,0,VALID,94.7667,VALID,0,VALID,20.504,VALID,22,VALID,0,
2011-11-20, 00:06:05,VALID,917.329,VALID,0,VALID,94.8582,VALID,0,VALID,20.4618,VALID,22,VALID,0,
2011-11-20, 00:07:05,VALID,917.36,VALID,0,VALID,94.8658,VALID,0,VALID,20.4634,VALID,22,VALID,0,
2011-11-20, 00:08:05,VALID,917.351,VALID,0,VALID,94.9039,VALID,0,VALID,20.4244,VALID,22,VALID,0,
2011-11-20, 00:09:05,VALID,917.329,VALID,0,VALID,94.9801,VALID,0,VALID,20.4244,VALID,22,VALID,0,
2011-11-20, 00:10:05,VALID,917.323,VALID,0,VALID,95.0716,VALID,0,VALID,20.3838,VALID,22,VALID,0,
2011-11-20, 00:11:05,VALID,917.277,VALID,0,VALID,95.1402,VALID,0,VALID,20.3854,VALID,22,VALID,0,
2011-11-20, 00:12:05,VALID,917.248,VALID,0,VALID,95.1402,VALID,0,VALID,20.3854,VALID,22,VALID,0,
2011-11-20, 00:13:05,VALID,917.209,VALID,0,VALID,95.0792,VALID,0,VALID,20.3464,VALID,22,VALID,0,
2011-11-20, 00:14:05,VALID,917.156,VALID,0,VALID,95.1631,VALID,0,VALID,20.3464,VALID,22,VALID,0,
2011-11-20, 00:15:05,VALID,917.179,VALID,0,VALID,95.2241,VALID,0,VALID,20.3058,VALID,22,VALID,0,
2011-11-20, 00:16:05,VALID,917.148,VALID,0,VALID,95.2698,VALID,0,VALID,20.3058,VALID,22,VALID,0,
2011-11-20, 00:17:05,VALID,917.158,VALID,0,VALID,95.3079,VALID,0,VALID,20.3448,VALID,22,VALID,0,
2011-11-20, 00:18:05,VALID,917.218,VALID,0,VALID,95.2775,VALID,0,VALID,20.3643,VALID,22,VALID,0,
2011-11-20, 00:19:05,VALID,917.19,VALID,0,VALID,95.3079,VALID,0,VALID,20.4033,VALID,22,VALID,0,
2011-11-20, 00:20:05,VALID,917.173,VALID,0,VALID,95.2317,VALID,0.107441,VALID,20.4018,VALID,22,VALID,0,
2011-11-20, 00:21:05,VALID,917.17,VALID,0,VALID,95.0869,VALID,0,VALID,20.4423,VALID,22,VALID,0,
2011-11-20, 00:22:05,VALID,917.148,VALID,0,VALID,94.8582,VALID,0,VALID,20.4423,VALID,22,VALID,0,
2011-11-20, 00:23:05,VALID,917.126,VALID,0,VALID,94.7972,VALID,0.107441,VALID,20.4408,VALID,22,VALID,0,
2011-11-20, 00:24:05,VALID,917.114,VALID,0,VALID,94.6371,VALID,0,VALID,20.4813,VALID,22,VALID,0,
2011-11-20, 00:25:05,VALID,917.115,VALID,0,VALID,94.4846,VALID,0,VALID,20.4813,VALID,22,VALID,0,
2011-11-20, 00:26:05,VALID,917.126,VALID,0,VALID,94.4694,VALID,0,VALID,20.4813,VALID,22,VALID,0,
2011-11-20, 00:27:05,VALID,917.092,VALID,0,VALID,94.4541,VALID,0,VALID,20.5009,VALID,22,VALID,0,
2011-11-20, 00:28:05,VALID,917.071,VALID,0,VALID,94.355,VALID,0,VALID,20.4993,VALID,22,VALID,0,
2011-11-20, 00:29:05,VALID,917.055,VALID,0,VALID,94.3245,VALID,0.107441,VALID,20.5009,VALID,22,VALID,0,
2011-11-20, 00:30:05,VALID,917.057,VALID,0,VALID,94.294,VALID,0,VALID,20.5009,VALID,22,VALID,0,
2011-11-20, 00:31:05,VALID,917.044,VALID,0,VALID,94.294,VALID,0,VALID,20.4813,VALID,22,VALID,0,
2011-11-20, 00:32:05,VALID,917.001,VALID,0,VALID,94.2788,VALID,0.107441,VALID,20.5204,VALID,22,VALID,0,
2011-11-20, 00:33:05,VALID,917,VALID,0,VALID,94.1339,VALID,0.107441,VALID,20.5204,VALID,22,VALID,0,
2011-11-20, 00:34:05,VALID,916.969,VALID,0,VALID,94.012,VALID,0.107441,VALID,20.5594,VALID,22,VALID,0,
2011-11-20, 00:35:05,VALID,916.912,VALID,0,VALID,93.8671,VALID,0,VALID,20.5399,VALID,22,VALID,0,
2011-11-20, 00:36:05,VALID,916.954,VALID,0,VALID,93.5012,VALID,0,VALID,20.4618,VALID,22,VALID,0,
2011-11-20, 00:37:05,VALID,916.935,VALID,0,VALID,93.8061,VALID,0,VALID,20.4228,VALID,22,VALID,0.632031,
2011-11-20, 00:38:05,VALID,916.897,VALID,0,VALID,93.9129,VALID,0,VALID,20.3838,VALID,22,VALID,0.459375,
2011-11-20, 00:39:05,VALID,916.9,VALID,0,VALID,94.1339,VALID,0.107441,VALID,20.3643,VALID,22,VALID,0.552344,
2011-11-20, 00:40:05,VALID,916.899,VALID,0,VALID,94.2559,VALID,0,VALID,20.3058,VALID,22,VALID,0.289063,
2011-11-20, 00:41:05,VALID,916.881,VALID,0,VALID,94.4084,VALID,0,VALID,20.2653,VALID,22,VALID,0,
2011-11-20, 00:42:05,VALID,916.848,VALID,0,VALID,94.5685,VALID,0,VALID,20.3074,VALID,22,VALID,0,
2011-11-20, 00:43:05,VALID,916.85,VALID,0,VALID,94.7057,VALID,0,VALID,20.2863,VALID,22,VALID,0,
2011-11-20, 00:44:05,VALID,916.836,VALID,0,VALID,94.7972,VALID,0,VALID,20.2863,VALID,22,VALID,0,
2011-11-20, 00:45:05,VALID,916.826,VALID,0,VALID,94.7819,VALID,0,VALID,20.2863,VALID,22,VALID,0,
2011-11-20, 00:46:05,VALID,916.812,VALID,0,VALID,94.7438,VALID,0,VALID,20.3074,VALID,22,VALID,0,
2011-11-20, 00:47:05,VALID,916.812,VALID,0,VALID,94.6981,VALID,0,VALID,20.2684,VALID,22,VALID,0,
2011-11-20, 00:48:05,VALID,916.805,VALID,0,VALID,94.6523,VALID,0,VALID,20.2684,VALID,22,VALID,0,
2011-11-20, 00:49:05,VALID,916.754,VALID,0,VALID,94.6218,VALID,0,VALID,20.2278,VALID,22,VALID,0.774219,
2011-11-20, 00:50:05,VALID,916.755,VALID,0,VALID,94.7972,VALID,0,VALID,20.2278,VALID,22,VALID,0.861328,
2011-11-20, 00:51:05,VALID,916.763,VALID,0,VALID,94.7972,VALID,0,VALID,20.2489,VALID,22,VALID,0.736328,
2011-11-20, 00:52:05,VALID,916.714,VALID,0,VALID,94.82,VALID,0,VALID,20.2083,VALID,22,VALID,0.874219,
2011-11-20, 00:53:05,VALID,916.717,VALID,0,VALID,94.9344,VALID,0,VALID,20.2098,VALID,22,VALID,0.696484,
2011-11-20, 00:54:05,VALID,916.702,VALID,0,VALID,95.0869,VALID,0,VALID,20.2293,VALID,22,VALID,0.638281,
2011-11-20, 00:55:05,VALID,916.662,VALID,0,VALID,95.247,VALID,0,VALID,20.1903,VALID,22,VALID,0.533594,
2011-11-20, 00:56:05,VALID,916.657,VALID,0,VALID,95.3842,VALID,0,VALID,20.1888,VALID,22,VALID,0.316406,
2011-11-20, 00:57:05,VALID,916.615,VALID,0,VALID,95.4985,VALID,0,VALID,20.2083,VALID,22,VALID,0.325391,
2011-11-20, 00:58:05,VALID,916.607,VALID,0,VALID,95.6053,VALID,0,VALID,20.2293,VALID,22,VALID,0.339063,
2011-11-20, 00:59:05,VALID,916.618,VALID,0,VALID,95.7349,VALID,0,VALID,20.2489,VALID,22,VALID,0.19375,
2011-11-20, 01:00:05,VALID,916.599,VALID,0,VALID,95.7958,VALID,0,VALID,20.2489,VALID,22,VALID,0,
2011-11-20, 01:01:05,VALID,916.588,VALID,0,VALID,95.8721,VALID,0,VALID,20.2684,VALID,22,VALID,0,
2011-11-20, 01:02:05,VALID,916.566,VALID,0,VALID,95.9178,VALID,0.107441,VALID,20.2863,VALID,22,VALID,0,
2011-11-20, 01:03:05,VALID,916.581,VALID,0,VALID,95.9636,VALID,0.107441,VALID,20.2863,VALID,22,VALID,0,
2011-11-20, 01:04:05,VALID,916.557,VALID,0,VALID,96.0017,VALID,0.107441,VALID,20.2848,VALID,22,VALID,0,
2011-11-20, 01:05:05,VALID,916.579,VALID,0,VALID,95.9483,VALID,0,VALID,20.2863,VALID,22,VALID,0,
2011-11-20, 01:06:05,VALID,916.58,VALID,0,VALID,95.8721,VALID,0,VALID,20.2653,VALID,22,VALID,0,
2011-11-20, 01:07:05,VALID,916.586,VALID,0,VALID,95.6053,VALID,0.107441,VALID,20.2068,VALID,22,VALID,0,
2011-11-20, 01:08:05,VALID,916.585,VALID,0,VALID,95.4071,VALID,0,VALID,20.1693,VALID,22,VALID,0,
2011-11-20, 01:09:05,VALID,916.575,VALID,0,VALID,95.3232,VALID,0.107441,VALID,20.1093,VALID,22,VALID,0,
2011-11-20, 01:10:05,VALID,916.564,VALID,0,VALID,95.2317,VALID,0.107441,VALID,20.0523,VALID,22,VALID,0,
2011-11-20, 01:11:05,VALID,916.599,VALID,0,VALID,95.247,VALID,0,VALID,20.0133,VALID,22,VALID,0.0539063,
2011-11-20, 01:12:05,VALID,916.568,VALID,0,VALID,95.3689,VALID,0.107441,VALID,19.9743,VALID,22,VALID,0.328516,
2011-11-20, 01:13:05,VALID,916.552,VALID,0,VALID,95.5062,VALID,0,VALID,19.9143,VALID,22,VALID,0.284375,
2011-11-20, 01:14:05,VALID,916.525,VALID,0,VALID,95.7425,VALID,0,VALID,19.9548,VALID,22,VALID,0.322656,
2011-11-20, 01:15:05,VALID,916.55,VALID,0,VALID,95.9788,VALID,0,VALID,19.9938,VALID,22,VALID,0.355078,
2011-11-20, 01:16:05,VALID,916.515,VALID,0,VALID,96.1236,VALID,0,VALID,20.0343,VALID,22,VALID,0.58125,
2011-11-20, 01:17:05,VALID,916.51,VALID,0,VALID,96.1923,VALID,0,VALID,20.0148,VALID,22,VALID,0.567578,
2011-11-20, 01:18:05,VALID,916.466,VALID,0,VALID,96.2533,VALID,0,VALID,20.0358,VALID,22,VALID,0.608203,
2011-11-20, 01:19:05,VALID,916.485,VALID,0,VALID,96.3066,VALID,0,VALID,20.0133,VALID,22,VALID,0.644531,
2011-11-20, 01:20:05,VALID,916.462,VALID,0,VALID,96.3295,VALID,0,VALID,20.0538,VALID,22,VALID,0.578906,
2011-11-20, 01:21:05,VALID,916.435,VALID,0,VALID,96.3524,VALID,0,VALID,20.0733,VALID,22,VALID,0.529297,
2011-11-20, 01:22:05,VALID,916.435,VALID,0,VALID,96.36,VALID,0,VALID,20.0733,VALID,22,VALID,0.557813,
2011-11-20, 01:23:05,VALID,916.432,VALID,0,VALID,96.3066,VALID,0,VALID,20.0733,VALID,22,VALID,0.417188,
2011-11-20, 01:24:05,VALID,916.394,VALID,0,VALID,96.3219,VALID,0,VALID,20.0733,VALID,22,VALID,0.336328,
2011-11-20, 01:25:05,VALID,916.38,VALID,0,VALID,96.3066,VALID,0,VALID,20.0523,VALID,22,VALID,0.444531,
2011-11-20, 01:26:05,VALID,916.354,VALID,0,VALID,96.2914,VALID,0,VALID,20.0733,VALID,22,VALID,0.333203,
2011-11-20, 01:27:05,VALID,916.357,VALID,0,VALID,96.299,VALID,0,VALID,20.0944,VALID,22,VALID,0.576953,
2011-11-20, 01:28:04,VALID,916.351,VALID,0,VALID,96.3066,VALID,0,VALID,20.0733,VALID,22,VALID,0.561328,
2011-11-20, 01:29:04,VALID,916.31,VALID,0,VALID,96.2914,VALID,0,VALID,20.0733,VALID,22,VALID,0.231641,
2011-11-20, 01:30:04,VALID,916.292,VALID,0,VALID,96.3142,VALID,0,VALID,20.0733,VALID,22,VALID,0.311328,
2011-11-20, 01:31:04,VALID,916.286,VALID,0,VALID,96.299,VALID,0,VALID,20.0733,VALID,22,VALID,0.504297,
2011-11-20, 01:32:04,VALID,916.261,VALID,0,VALID,96.2914,VALID,0,VALID,20.0718,VALID,22,VALID,0.317969,
2011-11-20, 01:33:04,VALID,916.28,VALID,0,VALID,96.299,VALID,0,VALID,20.0733,VALID,22,VALID,0.223828,
2011-11-20, 01:34:04,VALID,916.27,VALID,0,VALID,96.3447,VALID,0.107441,VALID,20.0718,VALID,22,VALID,0.241016,
2011-11-20, 01:35:04,VALID,916.25,VALID,0,VALID,96.3676,VALID,0,VALID,20.0508,VALID,22,VALID,0.632813,
2011-11-20, 01:36:04,VALID,916.231,VALID,0,VALID,96.3752,VALID,0,VALID,20.0718,VALID,22,VALID,0.599219,
2011-11-20, 01:37:04,VALID,916.274,VALID,0,VALID,96.4286,VALID,0.107441,VALID,20.0718,VALID,22,VALID,0.458203,
2011-11-20, 01:38:04,VALID,916.22,VALID,0,VALID,96.4515,VALID,0,VALID,20.0718,VALID,22,VALID,0.396094,
2011-11-20, 01:39:04,VALID,916.232,VALID,0,VALID,96.4896,VALID,0.107441,VALID,20.0718,VALID,121,VALID,0.407422,
2011-11-20, 01:40:04,VALID,916.24,VALID,0,VALID,96.5201,VALID,0.107441,VALID,20.0718,VALID,121,VALID,0.0789063,
2011-11-20, 01:41:04,VALID,916.216,VALID,0,VALID,96.5506,VALID,0,VALID,20.0913,VALID,121,VALID,0.113672,
2011-11-20, 01:42:04,VALID,916.194,VALID,0,VALID,96.6039,VALID,0,VALID,20.1108,VALID,121,VALID,0.2375,
2011-11-20, 01:43:04,VALID,916.199,VALID,0,VALID,96.6192,VALID,0,VALID,20.1318,VALID,121,VALID,0.307031,
2011-11-20, 01:44:04,VALID,916.171,VALID,0,VALID,96.642,VALID,0.107441,VALID,20.1303,VALID,121,VALID,0.137109,
2011-11-20, 01:45:04,VALID,916.177,VALID,0,VALID,96.6497,VALID,0.107441,VALID,20.0913,VALID,121,VALID,0.267578,
2011-11-20, 01:46:04,VALID,916.197,VALID,0,VALID,96.6725,VALID,0,VALID,20.1108,VALID,121,VALID,0.268359,
2011-11-20, 01:47:04,VALID,916.173,VALID,0,VALID,96.6649,VALID,0,VALID,20.1123,VALID,121,VALID,0.440234,
2011-11-20, 01:48:04,VALID,916.186,VALID,0,VALID,96.703,VALID,0,VALID,20.0913,VALID,121,VALID,0.404297,
2011-11-20, 01:49:04,VALID,916.174,VALID,0,VALID,96.6954,VALID,0,VALID,20.0718,VALID,121,VALID,0.622656,
2011-11-20, 01:50:04,VALID,916.151,VALID,0,VALID,96.7107,VALID,0,VALID,20.0718,VALID,121,VALID,0.337891,
2011-11-20, 01:51:04,VALID,916.126,VALID,0,VALID,96.703,VALID,0,VALID,20.0733,VALID,121,VALID,0.397656,
2011-11-20, 01:52:04,VALID,916.131,VALID,0,VALID,96.6725,VALID,0,VALID,20.0133,VALID,121,VALID,0.333594,
2011-11-20, 01:53:04,VALID,916.09,VALID,0,VALID,96.6878,VALID,0,VALID,20.0148,VALID,121,VALID,0.580078,
2011-11-20, 01:54:04,VALID,916.1,VALID,0,VALID,96.7488,VALID,0,VALID,19.9938,VALID,121,VALID,0.753516,
2011-11-20, 01:55:04,VALID,916.09,VALID,0,VALID,96.7716,VALID,0,VALID,19.9743,VALID,121,VALID,0.322266,
2011-11-20, 01:56:04,VALID,916.06,VALID,0,VALID,96.7793,VALID,0,VALID,20.0148,VALID,121,VALID,0.209766,
2011-11-20, 01:57:04,VALID,916.059,VALID,0,VALID,96.8174,VALID,0,VALID,19.9743,VALID,121,VALID,0.541016,
2011-11-20, 01:58:04,VALID,916.069,VALID,0,VALID,96.8174,VALID,0.107441,VALID,19.9743,VALID,120,VALID,0.680469,
2011-11-20, 01:59:04,VALID,916.031,VALID,0,VALID,96.8174,VALID,0,VALID,19.9743,VALID,120,VALID,0.387109,
2011-11-20, 02:00:04,VALID,916.029,VALID,0,VALID,96.8174,VALID,0,VALID,19.9548,VALID,120,VALID,0.385156,
2011-11-20, 02:01:04,VALID,915.998,VALID,0,VALID,96.8098,VALID,0,VALID,19.9158,VALID,119,VALID,0.521875,
2011-11-20, 02:02:04,VALID,915.985,VALID,0,VALID,96.8631,VALID,0,VALID,19.9368,VALID,158,VALID,0.371875,
2011-11-20, 02:03:04,VALID,915.965,VALID,0,VALID,96.8631,VALID,0,VALID,19.9158,VALID,158,VALID,0.808203,
2011-11-20, 02:04:04,VALID,915.942,VALID,0,VALID,96.8784,VALID,0,VALID,19.9368,VALID,157,VALID,0.719141,
2011-11-20, 02:05:04,VALID,915.877,VALID,0,VALID,96.9012,VALID,0,VALID,19.8963,VALID,157,VALID,0.522656,
2011-11-20, 02:06:04,VALID,915.854,VALID,0,VALID,96.886,VALID,0,VALID,19.9158,VALID,153,VALID,0.8,
2011-11-20, 02:07:04,VALID,915.857,VALID,0,VALID,96.9546,VALID,0,VALID,19.9563,VALID,152,VALID,0.270312,
2011-11-20, 02:08:04,VALID,915.807,VALID,0,VALID,96.9775,VALID,0,VALID,19.9548,VALID,153,VALID,0.570313,
2011-11-20, 02:09:04,VALID,915.794,VALID,0,VALID,96.9775,VALID,0,VALID,19.9548,VALID,152,VALID,0.409375,
2011-11-20, 02:10:04,VALID,915.745,VALID,0,VALID,96.9851,VALID,0,VALID,19.9953,VALID,152,VALID,0.267188,
2011-11-20, 02:11:04,VALID,915.735,VALID,0,VALID,96.9698,VALID,0,VALID,19.9743,VALID,152,VALID,0.502734,
2011-11-20, 02:12:04,VALID,915.693,VALID,0,VALID,96.9927,VALID,0,VALID,19.9743,VALID,153,VALID,0.435937,
2011-11-20, 02:13:04,VALID,915.7,VALID,0,VALID,96.9775,VALID,0.107441,VALID,19.9743,VALID,152,VALID,0.438281,
2011-11-20, 02:14:04,VALID,915.686,VALID,0,VALID,96.9927,VALID,0.107441,VALID,19.9548,VALID,152,VALID,0.483203,
2011-11-20, 02:15:04,VALID,915.678,VALID,0,VALID,96.9775,VALID,0,VALID,19.9548,VALID,175,VALID,0.980078,
2011-11-20, 02:16:04,VALID,915.648,VALID,0,VALID,97.0003,VALID,0,VALID,19.9953,VALID,175,VALID,0.778125,
2011-11-20, 02:17:04,VALID,915.638,VALID,0,VALID,96.9775,VALID,0,VALID,19.9548,VALID,175,VALID,0.658203,
2011-11-20, 02:18:04,VALID,915.631,VALID,0,VALID,96.9851,VALID,0,VALID,19.9548,VALID,175,VALID,0.328125,
2011-11-20, 02:19:04,VALID,915.619,VALID,0,VALID,96.9317,VALID,0,VALID,19.9158,VALID,175,VALID,0.511719,
2011-11-20, 02:20:04,VALID,915.604,VALID,0,VALID,96.9012,VALID,0,VALID,19.9173,VALID,175,VALID,0.929297,
2011-11-20, 02:21:04,VALID,915.592,VALID,0,VALID,96.8631,VALID,0,VALID,19.8978,VALID,175,VALID,0.649609,
2011-11-20, 02:22:04,VALID,915.59,VALID,0,VALID,96.8174,VALID,0,VALID,19.8573,VALID,175,VALID,0.58125,
2011-11-20, 02:23:04,VALID,915.568,VALID,0,VALID,96.7793,VALID,0,VALID,19.8378,VALID,175,VALID,0.725391,
2011-11-20, 02:24:04,VALID,915.542,VALID,0,VALID,96.7564,VALID,0,VALID,19.8183,VALID,175,VALID,0.765625,
2011-11-20, 02:25:04,VALID,915.511,VALID,0,VALID,96.7259,VALID,0,VALID,19.8393,VALID,175,VALID,0.491016,
2011-11-20, 02:26:04,VALID,915.518,VALID,0,VALID,96.6802,VALID,0,VALID,19.8603,VALID,175,VALID,0.479297,
2011-11-20, 02:27:04,VALID,915.495,VALID,0,VALID,96.6497,VALID,0,VALID,19.8198,VALID,175,VALID,0.434766,
2011-11-20, 02:28:04,VALID,915.45,VALID,0,VALID,96.6039,VALID,0,VALID,19.8393,VALID,175,VALID,0.369531,
2011-11-20, 02:29:04,VALID,915.461,VALID,0,VALID,96.5506,VALID,0,VALID,19.8408,VALID,175,VALID,0.306641,
2011-11-20, 02:30:04,VALID,915.449,VALID,0,VALID,96.4819,VALID,0,VALID,19.7583,VALID,175,VALID,0.435156,
2011-11-20, 02:31:04,VALID,915.442,VALID,0,VALID,96.4057,VALID,0,VALID,19.8213,VALID,175,VALID,0.323047,
2011-11-20, 02:32:04,VALID,915.407,VALID,0,VALID,96.3295,VALID,0,VALID,19.8018,VALID,165,VALID,0.384766,
2011-11-20, 02:33:04,VALID,915.372,VALID,0,VALID,96.238,VALID,0,VALID,19.7388,VALID,164,VALID,0.75,
2011-11-20, 02:34:04,VALID,915.348,VALID,0,VALID,96.0779,VALID,0,VALID,19.7223,VALID,163,VALID,0.477344,
2011-11-20, 02:35:04,VALID,915.334,VALID,0,VALID,95.8873,VALID,0,VALID,19.7238,VALID,150,VALID,0.425,
2011-11-20, 02:36:04,VALID,915.287,VALID,0,VALID,95.7196,VALID,0,VALID,19.6803,VALID,150,VALID,0.684375,
2011-11-20, 02:37:04,VALID,915.288,VALID,0,VALID,95.468,VALID,0,VALID,19.6413,VALID,150,VALID,0.513672,
2011-11-20, 02:38:04,VALID,915.263,VALID,0,VALID,95.0183,VALID,0,VALID,19.6653,VALID,154,VALID,0.607031,
2011-11-20, 02:39:04,VALID,915.253,VALID,0,VALID,94.6218,VALID,0,VALID,19.6248,VALID,152,VALID,0.987109,
2011-11-20, 02:40:04,VALID,915.219,VALID,0,VALID,94.3855,VALID,0,VALID,19.6458,VALID,152,VALID,0.3375,
2011-11-20, 02:41:04,VALID,915.222,VALID,0,VALID,94.1949,VALID,0,VALID,19.5828,VALID,152,VALID,0.626953,
2011-11-20, 02:42:04,VALID,915.238,VALID,0,VALID,94.0882,VALID,0,VALID,19.6053,VALID,152,VALID,0.832422,
2011-11-20, 02:43:04,VALID,915.193,VALID,0,VALID,94.0958,VALID,0,VALID,19.5858,VALID,152,VALID,0.657031,
2011-11-20, 02:44:04,VALID,915.149,VALID,0,VALID,94.1492,VALID,0,VALID,19.5243,VALID,150,VALID,0.422656,
2011-11-20, 02:45:04,VALID,915.125,VALID,0,VALID,94.2407,VALID,0,VALID,19.5258,VALID,150,VALID,0.258984,
2011-11-20, 02:46:04,VALID,915.127,VALID,0,VALID,94.3017,VALID,0,VALID,19.5063,VALID,150,VALID,0.695313,
2011-11-20, 02:47:04,VALID,915.115,VALID,0,VALID,94.3474,VALID,0,VALID,19.5063,VALID,150,VALID,0.564062,
2011-11-20, 02:48:04,VALID,915.094,VALID,0,VALID,94.4389,VALID,0,VALID,19.4074,VALID,150,VALID,0.0339844,
2011-11-20, 02:49:04,VALID,915.071,VALID,0,VALID,94.6295,VALID,0,VALID,19.4059,VALID,150,VALID,0.580859,
2011-11-20, 02:50:04,VALID,915.057,VALID,0,VALID,94.7286,VALID,0,VALID,19.4088,VALID,150,VALID,0.655078,
2011-11-20, 02:51:04,VALID,915.035,VALID,0,VALID,94.8124,VALID,0,VALID,19.3879,VALID,150,VALID,0.494141,
2011-11-20, 02:52:04,VALID,915.037,VALID,0,VALID,94.9115,VALID,0,VALID,19.3489,VALID,150,VALID,0.360156,
2011-11-20, 02:53:04,VALID,915.015,VALID,0,VALID,95.0335,VALID,0,VALID,19.3713,VALID,150,VALID,0.657031,
2011-11-20, 02:54:04,VALID,914.994,VALID,0,VALID,95.0716,VALID,0,VALID,19.3518,VALID,150,VALID,0.375781,
2011-11-20, 02:55:04,VALID,914.978,VALID,0,VALID,95.2165,VALID,0,VALID,19.3128,VALID,150,VALID,0.552344,
2011-11-20, 02:56:04,VALID,914.987,VALID,0,VALID,95.3689,VALID,0,VALID,19.3323,VALID,141,VALID,0.850781,
2011-11-20, 02:57:04,VALID,914.972,VALID,0,VALID,95.468,VALID,0,VALID,19.2918,VALID,92,VALID,0.544141,
2011-11-20, 02:58:04,VALID,915.016,VALID,0,VALID,95.529,VALID,0,VALID,19.2528,VALID,119,VALID,0.557422,
2011-11-20, 02:59:04,VALID,915.002,VALID,0,VALID,95.5748,VALID,0,VALID,19.2948,VALID,141,VALID,0.484766,
2011-11-20, 03:00:04,VALID,915.044,VALID,0,VALID,95.5748,VALID,0,VALID,19.2334,VALID,141,VALID,0.141406,
2011-11-20, 03:01:04,VALID,915.056,VALID,0,VALID,95.6053,VALID,0,VALID,19.2334,VALID,139,VALID,1.00117,
2011-11-20, 03:02:04,VALID,915.013,VALID,0,VALID,95.5595,VALID,0,VALID,19.2558,VALID,151,VALID,0.672266,
2011-11-20, 03:03:04,VALID,915.023,VALID,0,VALID,95.5062,VALID,0,VALID,19.2528,VALID,158,VALID,0.551172,
2011-11-20, 03:04:04,VALID,915.042,VALID,0,VALID,95.3842,VALID,0,VALID,19.1914,VALID,152,VALID,1.28086,
2011-11-20, 03:05:04,VALID,915.009,VALID,0,VALID,95.2393,VALID,0.107441,VALID,19.3172,VALID,152,VALID,0.662891,
2011-11-20, 03:06:04,VALID,915.015,VALID,0,VALID,95.0945,VALID,0,VALID,19.2348,VALID,170,VALID,0.433594,
2011-11-20, 03:07:04,VALID,915.008,VALID,0,VALID,94.9954,VALID,0,VALID,19.172,VALID,169,VALID,0.946484,
2011-11-20, 03:08:04,VALID,915.031,VALID,0,VALID,94.8887,VALID,0,VALID,19.1929,VALID,167,VALID,0.829297,
2011-11-20, 03:09:04,VALID,915.065,VALID,0,VALID,94.8658,VALID,0,VALID,19.3157,VALID,170,VALID,1.1332,
2011-11-20, 03:10:04,VALID,915.079,VALID,0,VALID,94.8124,VALID,0,VALID,19.2334,VALID,169,VALID,1.18711,
2011-11-20, 03:11:04,VALID,915.112,VALID,0,VALID,94.7819,VALID,0,VALID,19.3157,VALID,163,VALID,1.04531,
2011-11-20, 03:12:04,VALID,915.076,VALID,0,VALID,94.7591,VALID,0,VALID,19.2334,VALID,152,VALID,0.836328,
2011-11-20, 03:13:04,VALID,915.101,VALID,0,VALID,94.6523,VALID,0,VALID,19.2753,VALID,152,VALID,0.563672,
2011-11-20, 03:14:04,VALID,915.089,VALID,0,VALID,94.5227,VALID,0,VALID,19.2558,VALID,141,VALID,1.19492,
2011-11-20, 03:15:04,VALID,915.117,VALID,0,VALID,94.4617,VALID,0,VALID,19.2572,VALID,141,VALID,1.05742,
2011-11-20, 03:16:04,VALID,915.159,VALID,0,VALID,94.5227,VALID,0,VALID,19.1973,VALID,141,VALID,0.968359,
2011-11-20, 03:17:04,VALID,915.128,VALID,0,VALID,94.599,VALID,0,VALID,19.1359,VALID,141,VALID,0.91875,
2011-11-20, 03:18:04,VALID,915.142,VALID,0,VALID,94.6905,VALID,0,VALID,19.0954,VALID,141,VALID,0.996094,
2011-11-20, 03:19:04,VALID,915.153,VALID,0,VALID,94.8277,VALID,0,VALID,19.1164,VALID,141,VALID,1.24922,
2011-11-20, 03:20:04,VALID,915.179,VALID,0,VALID,94.9115,VALID,0,VALID,19.1193,VALID,141,VALID,0.99375,
2011-11-20, 03:21:04,VALID,915.176,VALID,0,VALID,94.9725,VALID,0,VALID,19.0369,VALID,141,VALID,0.567187,
2011-11-20, 03:22:04,VALID,915.164,VALID,0,VALID,95.1402,VALID,0,VALID,19.0369,VALID,141,VALID,1.0168,
2011-11-20, 03:23:04,VALID,915.201,VALID,0,VALID,95.3308,VALID,0,VALID,19.0983,VALID,141,VALID,1.04844,
2011-11-20, 03:24:04,VALID,915.146,VALID,0,VALID,95.4452,VALID,0,VALID,19.0579,VALID,141,VALID,0.659375,
2011-11-20, 03:25:04,VALID,915.178,VALID,0,VALID,95.4985,VALID,0,VALID,19.0175,VALID,141,VALID,0.81875,
2011-11-20, 03:26:04,VALID,915.207,VALID,0,VALID,95.5748,VALID,0,VALID,19.0998,VALID,141,VALID,0.784375,
2011-11-20, 03:27:04,VALID,915.216,VALID,0,VALID,95.5824,VALID,0,VALID,19.0788,VALID,141,VALID,1.0332,
2011-11-20, 03:28:04,VALID,915.218,VALID,0,VALID,95.5443,VALID,0,VALID,19.0369,VALID,141,VALID,0.914063,
2011-11-20, 03:29:04,VALID,915.254,VALID,0,VALID,95.5062,VALID,0,VALID,19.0384,VALID,141,VALID,0.841406,
2011-11-20, 03:30:04,VALID,915.222,VALID,0,VALID,95.4604,VALID,0,VALID,18.9575,VALID,141,VALID,0.838281,
2011-11-20, 03:31:04,VALID,915.232,VALID,0,VALID,95.4223,VALID,0,VALID,18.998,VALID,141,VALID,0.729297,
2011-11-20, 03:32:04,VALID,915.219,VALID,0,VALID,95.4452,VALID,0,VALID,19.0203,VALID,141,VALID,0.492969,
2011-11-20, 03:33:04,VALID,915.234,VALID,0,VALID,95.4147,VALID,0,VALID,19.0008,VALID,141,VALID,0.572266,
2011-11-20, 03:34:04,VALID,915.215,VALID,0,VALID,95.4147,VALID,0,VALID,18.9604,VALID,141,VALID,0.626953,
2011-11-20, 03:35:04,VALID,915.188,VALID,0,VALID,95.4299,VALID,0,VALID,18.9424,VALID,141,VALID,0.655469,
2011-11-20, 03:36:04,VALID,915.213,VALID,0,VALID,95.4604,VALID,0,VALID,18.9019,VALID,141,VALID,0.669531,
2011-11-20, 03:37:04,VALID,915.214,VALID,0,VALID,95.5138,VALID,0,VALID,18.9229,VALID,141,VALID,0.569922,
2011-11-20, 03:38:04,VALID,915.208,VALID,0,VALID,95.529,VALID,0,VALID,18.8824,VALID,141,VALID,0.552344,
2011-11-20, 03:39:04,VALID,915.193,VALID,0,VALID,95.5367,VALID,0,VALID,18.8839,VALID,141,VALID,0.595703,
2011-11-20, 03:40:04,VALID,915.17,VALID,0,VALID,95.6053,VALID,0,VALID,18.824,VALID,141,VALID,0.605469,
2011-11-20, 03:41:04,VALID,915.156,VALID,0,VALID,95.6739,VALID,0,VALID,18.824,VALID,141,VALID,0.511328,
2011-11-20, 03:42:04,VALID,915.158,VALID,0,VALID,95.7425,VALID,0,VALID,18.8045,VALID,141,VALID,0.482422,
2011-11-20, 03:43:04,VALID,915.148,VALID,0,VALID,95.7577,VALID,0,VALID,18.785,VALID,141,VALID,0.517578,
2011-11-20, 03:44:04,VALID,915.15,VALID,0,VALID,95.8111,VALID,0,VALID,18.8073,VALID,141,VALID,0.348437,
2011-11-20, 03:45:04,VALID,915.161,VALID,0,VALID,95.8492,VALID,0,VALID,18.7669,VALID,141,VALID,0.333594,
2011-11-20, 03:46:04,VALID,915.181,VALID,0,VALID,95.895,VALID,0,VALID,18.7864,VALID,141,VALID,0.00273437,
2011-11-20, 03:47:04,VALID,915.154,VALID,0,VALID,95.9864,VALID,0,VALID,18.8268,VALID,141,VALID,0.362109,